Theta_e
344 345 343 343 343 344 344 343 343 342 341 341 340 339 338 337 336 334 333 332 331 331 330 331 331 330 329 329 329 329 326 327 326 328 330 331 332 333 333 333 332 332 334 334 334 333 333 332 333 333 332 331 331 331 331 331 331 331 331 331 330 330 330 330 331 331 332 332 332 332 331 331 331 330 331 331 331 331 331 332 334 332 333 331 333
343 346 345 347 344 343 342 342 342 342 341 340 339 338 337 335 333 332 331 331 330 330 330 330 330 329 330 329 329 330 331 331 330 330 330 330 331 331 330 328 329 329 329 329 330 330 329 330 330 331 330 329 329 329 329 331 332 332 331 330 329 329 330 330 330 330 331 331 331 331 331 332 330 330 329 329 329 329 330 332 333 333 332 334 334
346 346 347 345 343 342 342 342 341 341 341 339 337 336 334 332 331 331 331 331 330 329 329 330 330 329 329 329 329 330 330 329 328 329 330 330 331 331 330 329 329 329 329 330 331 327 327 329 329 330 330 330 329 329 329 329 331 331 330 330 330 330 330 331 331 331 331 331 333 335 334 331 331 329 327 327 328 328 328 330 332 334 333 335 336
343 344 342 345 342 342 341 341 341 340 337 336 335 334 332 331 332 331 331 330 329 329 329 330 329 329 329 329 329 329 329 328 328 329 329 330 330 330 330 330 329 330 330 329 328 329 331 331 331 330 330 329 329 330 330 331 331 331 331 331 331 331 332 331 330 331 332 333 334 333 332 329 329 328 327 326 328 329 328 329 330 334 336 338 340
342 343 346 347 347 342 340 340 340 336 335 335 334 332 332 332 331 330 329 329 329 328 329 329 329 329 329 329 329 329 328 328 328 329 329 329 330 329 329 329 330 331 332 333 332 330 330 331 331 333 332 330 330 330 330 331 332 332 332 332 332 332 331 330 329 332 333 329 328 331 329 327 328 328 327 327 329 329 329 329 329 334 338 340 340
344 346 346 347 342 343 340 340 336 334 334 334 333 332 332 331 330 330 329 328 328 328 327 330 328 329 329 329 328 329 329 329 329 331 330 330 330 330 330 328 329 330 330 331 336 338 337 337 335 333 332 331 331 330 330 331 332 331 331 332 332 332 330 330 332 331 327 326 328 327 326 326 325 324 327 327 328 327 328 328 330 333 336 339 339
345 344 344 343 341 341 339 335 333 333 334 334 333 333 332 330 329 329 328 328 328 327 327 327 328 328 328 329 330 332 332 332 331 330 330 330 330 330 329 329 330 331 335 336 338 336 336 334 333 332 331 330 330 331 330 330 329 330 331 331 331 330 330 331 330 327 327 326 326 325 323 323 324 323 325 325 326 327 327 329 331 332 334 337 338
344 344 340 340 339 340 334 332 333 335 335 333 333 332 331 330 330 329 328 329 328 328 328 326 327 327 329 329 330 331 332 332 332 332 331 332 331 330 331 332 331 333 334 335 336 336 335 334 332 331 329 330 330 331 329 329 328 330 331 330 329 329 328 327 327 327 328 324 323 323 323 322 321 322 323 326 328 328 329 330 331 333 333 336 337
340 341 341 340 335 334 334 335 335 335 334 333 332 331 330 330 329 330 329 328 328 328 327 328 329 327 328 330 329 331 332 332 331 332 332 333 332 331 331 332 335 335 336 336 335 335 333 333 332 331 330 329 328 329 329 329 328 328 330 330 329 328 327 327 328 327 326 323 322 322 322 321 320 322 325 326 328 331 331 329 330 331 334 335 337
341 339 341 338 335 334 334 334 334 334 333 333 331 331 330 331 331 332 331 329 328 328 328 332 331 329 329 329 331 331 334 333 337 335 334 331 331 332 336 335 335 335 334 334 334 333 332 332 331 331 329 327 326 327 328 327 325 327 328 329 328 328 327 327 326 326 324 322 322 322 323 322 321 322 324 326 328 331 332 331 333 334 334 336 335
340 340 341 336 333 332 333 333 332 332 332 331 331 331 330 329 332 333 331 329 328 328 331 333 332 331 330 330 329 330 332 335 336 336 336 337 336 336 335 334 333 333 332 332 332 332 331 329 329 329 328 327 327 327 327 326 327 327 327 328 327 327 327 326 325 324 323 322 322 323 323 323 323 324 326 327 329 331 331 332 331 333 333 333 334
340 340 341 336 333 331 331 331 331 331 330 330 330 329 330 330 331 332 330 328 328 328 329 332 332 332 331 331 332 332 331 335 336 336 335 335 334 334 333 333 332 332 331 331 330 330 329 328 328 327 328 327 327 329 325 325 327 326 326 326 325 325 325 325 323 323 322 322 321 323 322 322 323 322 326 328 330 332 331 331 332 332 332 332 332
342 341 339 340 337 331 330 330 330 330 330 329 329 329 329 330 331 332 329 327 327 327 328 329 331 331 331 331 331 331 331 332 334 333 333 333 332 332 332 330 330 330 330 329 328 328 328 327 327 327 327 326 329 328 327 326 327 328 328 325 325 325 325 324 324 322 320 320 321 322 322 323 324 326 326 327 330 331 331 331 332 331 331 331 332
340 337 338 338 336 331 330 330 329 331 331 332 331 330 331 331 331 330 327 328 327 327 328 330 330 331 330 330 330 329 331 331 331 331 331 331 330 331 330 329 328 328 329 329 327 326 327 326 326 327 327 327 328 327 327 325 326 326 326 326 326 326 325 325 325 322 321 321 322 322 322 323 324 324 325 328 331 331 331 331 330 330 331 331 332
336 337 337 336 335 332 326 329 329 330 332 331 331 331 331 332 330 327 327 328 328 328 327 329 329 330 329 328 328 329 330 329 328 328 328 329 328 329 329 327 327 327 327 327 325 325 327 327 326 327 327 326 327 326 326 325 325 324 324 325 325 327 328 324 321 322 320 321 321 321 322 323 324 324 327 329 330 330 330 330 330 330 331 331 331
337 337 337 334 333 331 331 328 332 333 332 332 333 333 332 331 328 327 328 328 328 328 328 328 328 329 328 329 328 327 327 327 328 328 328 328 327 327 328 326 326 326 327 327 325 326 327 327 327 327 325 326 326 327 327 327 326 326 325 325 325 327 327 327 323 321 321 322 322 323 321 322 324 326 328 328 329 329 329 329 330 330 330 330 330
338 337 334 334 333 331 329 332 330 331 333 332 334 334 333 329 328 327 328 327 328 328 328 328 329 329 329 328 327 326 326 327 328 328 327 327 326 326 326 325 325 326 326 326 326 325 326 326 326 326 326 326 326 327 327 327 326 326 326 326 325 326 326 325 321 322 321 321 320 321 322 322 323 326 328 329 329 329 329 329 329 329 329 329 330
337 335 333 332 333 328 330 331 332 332 333 334 331 329 328 328 328 328 328 327 327 327 327 327 328 327 326 326 325 325 325 325 326 327 327 326 325 325 325 326 325 325 326 326 326 326 325 326 326 327 327 326 326 326 326 326 325 325 325 325 325 325 325 324 323 321 321 322 321 322 322 324 325 328 328 328 328 329 329 329 329 330 330 330 329
334 333 333 331 328 330 329 330 331 333 332 332 332 330 327 329 329 328 328 327 326 327 327 327 327 325 324 324 324 324 324 323 324 325 326 326 325 325 324 326 325 324 325 325 325 325 326 327 325 325 325 325 325 325 325 324 324 324 324 324 323 323 323 325 321 322 323 322 322 322 321 324 326 327 328 328 328 328 329 329 329 329 329 329 329
330 330 329 329 327 328 329 329 330 332 331 330 331 331 329 328 328 328 327 326 326 326 328 328 327 325 324 324 323 325 324 324 322 324 324 325 325 325 324 325 324 325 325 324 324 324 324 325 325 324 325 325 324 324 323 322 323 323 323 321 321 322 324 323 322 322 322 321 322 323 324 324 325 326 327 327 327 328 328 327 328 329 329 329 329
330 329 329 328 328 329 328 330 329 330 330 331 331 330 327 327 329 328 326 325 325 326 327 326 325 324 324 323 324 328 328 327 326 325 323 326 324 324 324 325 325 323 323 323 323 323 323 323 323 323 323 323 324 323 323 322 322 321 320 320 322 324 324 323 323 323 323 322 323 323 322 323 325 325 326 327 327 328 327 327 327 329 329 329 329
328 328 328 329 330 330 329 330 330 330 330 330 329 329 329 326 330 330 331 328 325 325 328 328 324 328 323 326 328 326 326 325 325 322 325 325 324 323 324 325 324 322 322 322 322 321 322 322 322 323 323 323 323 325 325 326 322 320 320 321 323 324 324 324 324 323 323 324 323 323 322 323 325 325 326 326 326 327 327 327 328 329 328 329 330
325 326 328 328 327 330 328 330 330 331 330 329 329 329 328 329 328 330 329 326 327 327 328 328 328 326 326 326 327 327 326 324 323 322 323 320 322 322 322 322 321 321 321 320 320 320 322 321 321 322 324 324 324 321 321 322 323 323 324 324 324 324 324 325 325 324 323 324 323 322 323 324 324 325 326 326 326 326 327 327 329 328 328 329 329
325 324 326 328 328 329 329 331 330 330 329 329 329 330 329 330 330 330 330 329 329 327 327 328 327 327 325 327 325 326 326 327 322 322 322 326 325 322 321 321 321 321 321 323 321 321 322 324 323 323 324 327 323 321 321 322 322 324 325 324 323 324 324 325 323 324 324 324 324 322 323 324 324 325 325 324 326 326 327 327 328 328 328 329 329
326 325 327 327 326 328 329 330 331 331 330 329 329 328 330 329 329 328 329 327 328 327 327 327 327 327 327 326 324 325 326 325 325 325 324 325 325 325 325 324 325 324 321 324 323 321 323 321 322 322 322 322 323 323 323 323 324 323 323 323 323 325 324 324 323 323 324 324 324 321 323 324 324 324 324 324 325 326 326 328 327 328 328 328 328
325 324 323 326 326 326 328 328 329 329 329 328 330 327 328 327 329 328 327 328 328 325 325 327 327 327 325 324 326 326 326 324 325 324 324 324 323 322 323 324 323 324 323 323 321 322 321 321 321 321 321 323 322 323 324 324 323 322 322 322 323 324 324 323 322 323 324 324 324 322 323 323 324 324 323 324 325 325 327 327 327 328 328 328 328
325 324 324 324 325 329 329 329 328 328 328 329 330 329 328 328 329 329 327 327 327 327 324 325 326 326 326 326 324 324 324 323 324 324 323 324 323 322 322 323 323 322 323 321 321 322 321 320 319 320 321 320 320 321 321 322 323 322 323 321 322 323 323 323 323 323 323 323 323 322 322 323 324 323 323 324 325 326 327 326 326 327 327 328 328
322 322 325 326 328 329 329 328 328 328 329 329 329 328 329 329 328 328 328 324 326 325 323 324 327 325 326 326 325 325 323 322 323 323 322 324 323 323 323 321 321 321 323 322 321 320 320 320 321 319 318 319 318 319 319 319 321 322 322 321 322 322 323 322 323 324 323 323 323 322 321 323 324 323 323 324 325 326 325 327 327 327 327 328 329
321 322 324 326 327 328 329 328 329 328 329 329 329 327 328 330 328 327 326 325 327 325 323 326 326 325 325 325 325 324 323 323 322 322 323 323 322 323 321 321 322 321 323 322 322 321 320 321 320 319 319 319 319 320 319 319 321 322 321 320 321 322 323 323 323 322 323 322 323 322 322 322 323 323 324 325 325 326 325 326 325 326 327 327 329
322 324 323 325 327 329 329 329 329 329 330 329 329 328 328 328 328 328 327 328 325 326 326 324 324 324 323 325 325 324 323 321 322 322 321 323 322 323 322 322 321 321 321 322 321 320 321 320 320 319 319 319 318 319 318 319 319 320 321 322 321 322 323 322 322 322 323 322 322 322 323 322 322 322 323 323 325 325 325 325 325 325 326 327 328
323 324 325 325 328 329 329 330 329 330 330 329 328 329 329 328 328 327 327 326 324 326 325 325 324 325 325 325 323 324 323 322 322 322 321 321 322 323 322 322 320 321 322 320 322 321 321 320 318 318 318 317 318 318 317 318 318 318 320 321 322 323 322 323 322 323 322 322 322 322 322 322 321 322 322 323 323 324 325 325 324 325 326 327 328
320 323 326 327 326 328 328 329 329 330 330 328 328 328 328 327 328 328 326 325 326 324 324 325 324 323 324 324 324 322 323 322 323 322 323 321 321 321 321 322 321 321 321 321 321 322 321 320 320 320 321 319 318 319 319 317 318 317 318 319 321 322 321 321 320 321 321 321 321 321 321 321 322 322 322 322 322 323 324 324 324 324 326 326 327
323 325 325 325 327 328 328 328 326 327 328 326 326 327 328 327 328 328 327 323 325 326 324 325 325 326 326 324 324 323 323 322 322 322 322 321 321 320 320 322 322 321 321 320 321 322 321 320 321 320 320 319 319 318 317 318 317 317 318 319 321 320 320 321 321 321 320 321 320 320 321 321 321 322 323 322 322 322 323 323 324 325 325 326 327
323 324 325 325 327 329 329 328 328 329 329 326 326 326 328 329 328 328 327 326 324 323 324 326 324 324 325 325 323 322 322 322 321 322 321 321 322 320 320 320 321 322 321 320 318 319 318 318 318 318 318 318 318 318 317 316 316 316 317 318 319 321 321 319 320 321 320 320 320 320 319 320 319 321 321 322 323 322 322 323 323 323 323 324 325
323 324 324 326 326 327 328 327 329 329 328 326 326 327 329 328 327 327 327 326 325 325 324 326 324 324 325 322 324 323 323 322 322 323 322 321 321 320 320 319 321 323 319 319 320 319 319 317 317 316 317 317 316 317 316 317 315 315 316 319 318 317 321 319 320 321 319 320 321 320 320 320 320 321 321 321 322 322 322 322 323 323 322 322 324
324 325 325 325 326 328 328 328 328 327 328 327 328 329 329 328 327 324 327 327 325 325 324 324 325 323 323 324 324 324 323 323 323 322 321 321 318 319 319 321 321 321 319 320 320 319 318 317 318 316 314 314 315 315 316 315 316 316 317 318 318 320 320 320 319 319 320 320 320 321 320 320 321 321 322 321 321 321 322 322 323 322 322 322 322
325 326 324 326 326 327 327 328 328 327 327 328 328 328 328 326 327 327 327 327 326 325 324 325 325 325 323 322 323 323 323 323 323 322 323 322 320 319 319 320 322 321 320 320 319 319 318 316 317 318 317 313 313 314 314 315 315 316 316 317 317 319 320 320 320 320 319 319 320 320 319 320 321 322 321 321 322 320 321 322 322 322 321 321 322
326 326 325 325 326 328 328 328 329 328 327 327 327 326 327 326 326 325 327 325 325 325 325 325 325 323 324 322 323 323 323 322 323 322 323 321 321 321 320 321 321 320 319 319 319 320 320 318 316 317 316 316 314 314 313 314 314 314 315 315 318 318 319 320 320 319 318 318 319 319 320 321 321 321 321 322 321 320 319 320 322 321 321 321 322
326 325 324 325 327 328 328 328 328 328 328 328 329 328 328 327 326 326 326 325 325 323 324 325 324 324 325 324 323 323 322 322 322 323 322 320 320 320 321 321 320 319 319 319 318 319 319 319 317 315 316 315 315 315 314 314 314 313 314 316 317 319 320 320 320 318 318 319 319 319 320 320 321 321 321 321 321 321 319 319 318 319 318 321 321
327 326 325 326 327 328 327 327 327 328 328 328 328 326 327 325 323 324 323 324 325 323 325 323 325 324 324 322 322 324 322 323 322 322 322 322 321 321 321 321 320 319 319 318 317 316 317 318 318 315 314 315 316 315 315 314 314 315 315 316 317 318 318 317 319 319 320 320 321 321 320 321 320 321 320 321 321 320 320 319 319 317 318 319 322
327 327 326 326 326 326 326 325 327 326 326 326 327 326 325 324 325 323 323 324 324 324 323 325 325 323 323 322 322 323 323 322 322 322 322 321 322 321 321 320 320 320 319 319 318 318 318 319 317 318 315 314 313 314 315 315 312 311 314 315 316 317 319 318 319 317 319 319 319 319 320 319 320 320 321 321 320 320 320 319 318 318 317 318 318
326 327 326 327 327 327 327 327 325 326 326 326 327 327 327 326 325 325 325 323 323 322 323 324 325 324 324 323 324 323 323 322 322 323 322 321 320 319 320 321 320 320 319 319 319 317 318 318 318 316 316 314 313 314 313 312 310 308 308 309 312 314 318 318 316 315 317 320 320 320 320 320 319 322 322 320 323 323 320 320 319 318 317 318 317
328 327 328 328 327 327 327 328 327 326 326 325 323 324 327 329 327 327 324 323 325 325 325 325 325 323 325 324 324 324 322 321 322 322 321 321 321 320 321 321 322 321 319 319 318 317 318 318 318 315 314 315 313 315 315 314 309 310 311 309 306 306 312 314 314 314 318 319 318 320 319 319 320 324 324 324 322 323 321 320 318 318 317 317 316
327 328 327 327 327 327 328 327 327 327 325 326 324 327 329 329 329 328 327 325 324 325 326 325 324 323 323 323 324 323 323 321 321 320 321 322 322 321 320 320 321 322 320 318 319 316 318 317 317 316 316 312 311 313 315 314 313 309 304 305 306 306 303 306 308 312 317 315 317 318 320 319 322 324 324 322 321 321 322 320 318 318 317 317 316
327 328 328 326 325 326 327 327 327 325 325 326 327 328 327 327 327 327 326 325 325 323 322 322 323 324 322 323 323 323 322 322 322 321 320 321 322 322 321 321 321 321 320 318 317 316 316 317 317 317 316 313 311 312 313 314 312 314 308 305 303 303 303 305 306 309 313 313 314 317 319 319 322 323 322 320 321 321 321 321 319 318 317 317 317
327 329 329 328 326 325 327 327 325 324 324 326 328 327 327 326 326 323 321 321 320 319 321 321 321 322 321 324 322 321 322 322 321 321 321 321 322 322 322 320 320 320 320 319 318 317 316 316 316 317 315 316 315 311 309 314 313 313 312 311 309 303 302 305 305 301 311 313 313 316 317 318 321 321 321 319 319 319 320 320 321 317 317 317 317
329 330 329 329 327 326 326 325 326 325 324 326 327 326 326 326 326 325 324 323 321 323 324 323 321 321 324 323 323 324 322 322 322 322 321 321 321 321 321 321 320 321 320 320 318 318 316 317 318 317 316 316 315 310 311 310 312 312 311 312 311 310 309 305 301 304 301 306 311 313 315 318 320 321 319 319 319 318 320 321 320 318 317 317 316
331 330 329 329 328 327 326 326 326 324 324 326 325 325 326 326 325 325 325 323 322 323 324 324 324 323 323 324 324 322 321 321 321 320 321 321 321 320 320 320 319 319 319 319 318 318 318 318 317 319 318 317 315 312 311 311 308 309 311 310 311 310 310 310 309 305 303 301 303 311 316 316 318 320 319 318 318 318 318 320 320 319 317 316 316
331 330 329 329 328 328 327 327 326 325 325 324 324 325 324 326 326 326 324 325 324 324 324 324 323 325 323 323 323 322 321 322 321 321 321 320 321 320 320 319 320 320 319 318 318 318 318 318 317 316 317 317 316 315 313 311 311 309 309 309 309 308 308 309 309 309 305 302 303 307 308 314 317 317 320 320 319 319 319 320 320 319 317 316 316
332 331 330 330 329 329 328 327 326 325 326 324 324 324 325 325 324 324 323 323 324 324 323 322 323 324 322 322 323 321 320 321 323 321 321 320 320 321 319 319 320 320 320 319 319 319 318 318 318 318 318 317 317 314 312 312 312 312 310 310 307 308 308 307 308 307 307 307 304 306 308 309 309 313 318 318 318 318 319 319 321 319 316 315 315
332 331 331 330 329 328 329 328 327 326 326 325 324 323 325 325 324 323 323 321 322 322 321 322 322 322 321 322 321 322 321 321 321 322 321 321 322 321 320 320 321 321 319 318 318 317 318 318 318 320 318 316 314 314 313 313 312 311 310 309 308 307 306 305 306 308 307 305 306 307 308 311 309 309 312 317 317 318 317 320 320 319 317 315 314
Wind_Speed
5 6 7 8 9 8 9 10 10 9 9 9 9 9 10 10 10 11 11 10 10 9 8 7 8 7 6 4 5 5 3 4 3 6 9 8 8 8 8 8 7 7 7 7 7 7 8 9 9 9 9 9 9 9 10 11 11 10 10 10 10 10 10 11 11 12 13 13 13 12 12 13 12 11 14 15 16 17 17 17 16 14 13 12 11
4 6 7 7 9 10 9 9 10 9 9 9 9 10 10 10 10 10 10 9 9 8 8 8 8 7 7 6 6 8 10 9 9 8 8 8 8 8 7 6 5 4 5 5 5 7 7 7 7 8 8 7 6 6 7 8 10 10 10 9 9 10 11 12 12 13 14 14 14 14 12 14 14 13 10 10 14 16 16 16 16 13 10 14 16
5 6 6 9 11 10 9 9 10 9 10 8 9 10 10 10 10 10 9 8 8 8 8 8 7 6 7 8 8 8 8 8 6 6 7 7 8 8 6 4 4 4 3 5 6 4 1 4 6 7 7 9 8 10 11 8 7 10 10 11 12 12 12 13 14 14 15 16 16 17 15 14 13 10 7 8 12 15 15 16 16 16 11 16 17
6 5 6 9 11 11 10 10 9 9 7 9 10 10 10 10 10 9 8 8 6 7 9 7 6 6 6 6 7 7 6 5 6 8 8 8 8 8 8 8 8 7 7 5 3 5 9 10 9 7 8 9 10 11 11 12 12 10 11 10 10 10 11 12 12 13 15 15 15 14 10 9 8 7 9 8 13 16 15 15 16 16 16 17 18
6 6 6 7 8 9 8 9 9 7 9 10 10 10 10 9 8 9 7 7 7 6 8 7 6 6 6 6 6 5 5 5 5 7 7 7 8 8 7 7 8 8 9 9 10 9 8 8 9 11 10 10 11 11 11 12 11 12 12 12 12 11 12 12 13 14 13 13 15 14 8 9 9 8 9 10 12 15 17 17 16 17 18 15 15
5 5 6 5 7 8 10 8 8 11 9 9 9 9 9 8 8 7 8 7 7 6 6 8 6 6 6 6 6 7 7 7 7 7 7 7 5 7 8 6 6 6 4 7 11 12 14 12 10 8 10 10 11 11 12 10 10 10 11 10 10 11 12 13 12 11 13 16 17 8 8 9 9 8 11 14 12 15 18 19 18 18 18 16 14
6 4 5 5 7 9 9 10 10 8 9 9 8 9 8 8 7 6 6 6 6 5 5 5 7 5 5 5 7 7 7 7 6 6 5 6 6 5 5 6 6 7 12 10 11 10 9 9 8 8 10 10 11 12 10 10 10 11 11 11 11 11 12 10 10 11 14 14 7 8 8 10 10 9 12 13 14 18 19 19 19 19 19 13 15
5 4 4 6 7 7 10 9 8 9 9 8 7 7 7 8 8 8 7 6 4 4 4 2 5 4 4 3 4 5 6 5 5 4 3 6 4 4 6 8 7 7 9 9 8 8 8 9 9 9 10 11 11 11 11 10 11 11 10 11 11 9 9 9 11 11 16 10 8 7 7 8 11 9 8 13 16 17 17 18 18 18 17 15 13
4 5 7 6 8 11 10 10 10 9 9 8 6 5 5 8 6 8 8 5 3 3 2 4 5 2 3 2 2 6 8 8 6 6 4 5 6 5 5 7 10 8 8 7 7 8 9 9 11 11 13 11 12 11 10 10 12 10 9 10 8 8 11 14 12 15 11 6 8 7 8 9 11 10 11 16 17 18 18 16 15 17 18 18 16
5 4 7 6 8 10 10 9 10 9 9 8 7 5 6 7 7 8 7 6 5 4 5 9 7 3 3 3 3 6 11 8 13 14 11 4 2 6 9 9 8 7 6 6 8 9 10 12 11 11 11 10 9 9 9 10 9 11 9 9 10 12 14 13 13 16 6 7 8 8 8 7 10 9 13 16 17 18 19 20 17 18 18 20 19
6 6 7 7 8 9 9 8 8 8 8 7 7 6 5 5 7 6 6 6 6 5 7 8 7 6 5 3 3 5 7 11 11 12 13 13 13 11 8 7 8 8 8 9 10 10 11 11 12 11 11 10 10 9 10 10 11 8 8 10 11 12 13 10 14 8 8 9 9 8 10 8 9 8 15 17 18 18 18 19 19 18 19 20 20
6 6 7 7 9 9 8 7 7 7 7 6 5 5 5 5 5 5 5 6 6 6 7 7 7 6 5 4 8 7 7 10 11 11 10 11 10 9 8 8 8 8 8 9 10 10 10 11 10 10 10 9 10 12 8 10 10 8 9 9 10 11 11 10 12 7 8 8 10 9 11 11 11 10 17 17 18 19 19 20 19 19 19 19 20
6 5 7 6 7 8 7 6 6 5 5 4 4 4 4 4 6 3 5 6 5 5 6 5 6 6 6 6 7 7 6 8 10 10 10 10 10 10 10 10 9 9 8 9 9 9 9 10 9 9 9 9 12 10 12 10 11 12 14 9 10 12 11 11 10 11 9 10 10 11 12 11 12 14 17 19 19 20 20 19 19 19 18 19 19
6 6 5 5 6 7 7 5 5 4 3 3 2 2 4 4 4 4 5 6 5 6 5 6 6 6 6 6 6 5 7 8 9 9 9 9 9 9 10 10 10 9 9 9 9 9 8 8 8 9 9 9 10 10 10 10 10 10 12 12 12 13 14 11 10 10 10 11 10 11 12 11 10 16 17 19 20 21 20 20 19 19 19 18 18
6 5 3 2 4 3 4 4 5 4 4 3 3 3 2 3 3 4 5 7 6 6 5 6 6 6 6 6 6 8 9 8 9 9 9 9 9 9 9 9 9 9 8 8 8 7 8 8 8 8 8 9 9 9 9 10 10 11 10 11 12 13 15 9 9 10 10 10 10 11 12 11 12 16 19 20 20 20 21 20 20 19 19 19 19
5 4 3 2 2 4 4 5 3 2 2 3 2 2 1 2 4 4 7 6 5 4 6 6 5 5 5 6 7 7 8 9 9 9 9 8 9 8 9 9 9 8 8 8 8 8 7 7 8 8 8 9 8 8 9 9 9 9 10 11 12 11 10 10 10 11 8 9 10 10 10 10 16 19 20 20 20 20 20 20 21 20 20 19 19
4 3 2 2 2 2 3 1 4 2 3 3 2 1 1 5 4 6 6 5 4 5 5 5 6 5 6 7 7 8 8 9 9 8 8 8 8 8 8 8 8 7 8 8 8 8 8 7 8 8 8 8 7 8 8 8 7 8 9 9 10 10 9 9 9 9 8 9 9 9 9 9 17 19 20 21 21 21 21 21 21 21 20 20 19
4 2 2 1 1 1 2 1 2 1 2 7 5 5 5 3 5 6 6 6 5 4 5 5 6 6 7 7 7 8 9 9 9 8 8 8 7 8 7 7 7 7 7 8 8 8 8 8 8 8 7 7 7 7 7 6 6 7 8 9 9 10 10 11 10 7 10 9 9 8 9 13 18 18 20 20 21 21 22 22 22 21 21 21 20
2 2 2 1 1 1 1 2 2 1 3 3 3 6 5 7 6 5 6 5 4 4 4 4 6 6 7 7 7 7 8 8 6 8 8 8 8 6 7 7 7 7 8 8 7 7 7 7 7 7 7 6 7 5 5 5 6 7 7 8 10 10 13 12 7 7 7 8 8 7 7 15 16 18 19 19 20 21 22 23 22 22 22 21 21
3 3 2 2 0 1 1 2 1 3 3 3 3 4 6 6 5 6 6 5 5 4 4 5 6 6 7 6 5 3 4 5 5 5 7 7 8 8 7 6 7 7 7 7 7 7 6 6 6 7 7 7 8 7 3 3 5 5 6 8 9 13 7 5 7 7 6 6 5 7 11 14 16 17 19 19 21 22 23 23 22 21 22 22 22
2 2 2 2 1 2 1 1 3 3 3 3 3 4 5 5 6 7 6 5 4 4 4 6 5 4 3 3 1 3 4 4 5 5 4 5 7 6 6 5 6 6 6 7 6 6 6 6 6 7 6 7 9 11 9 4 3 2 5 7 12 7 4 5 6 6 5 6 5 5 11 14 16 17 18 19 21 22 22 23 23 22 22 21 22
3 4 3 2 2 3 2 1 4 3 3 2 2 2 4 0 3 3 3 3 3 1 3 2 2 2 4 1 3 4 4 5 5 5 4 4 6 5 5 5 6 6 5 5 5 5 4 5 6 6 7 8 11 8 4 11 9 3 4 9 8 4 4 5 5 5 5 5 6 5 11 14 16 17 18 20 22 23 23 23 23 22 21 21 21
2 1 4 3 2 2 1 2 2 3 2 2 2 2 2 1 3 2 3 2 2 1 2 1 1 1 3 3 2 4 3 4 5 4 3 3 5 4 4 4 3 4 3 2 1 2 3 4 2 6 10 14 9 5 5 6 3 9 10 7 5 4 5 5 6 5 6 5 7 7 11 14 15 17 18 21 23 24 24 24 23 22 22 22 22
0 1 2 3 2 1 1 2 3 2 2 2 1 2 1 1 1 1 1 2 2 2 2 1 2 4 3 2 3 3 2 2 2 6 6 1 4 6 3 5 6 5 7 6 4 4 8 13 9 8 8 5 6 6 6 6 6 6 6 5 5 5 5 5 5 6 6 6 7 6 11 14 15 16 18 21 22 23 23 23 23 23 23 22 22
1 0 1 3 2 1 2 3 2 2 1 1 1 2 1 0 1 1 1 2 2 2 2 2 2 2 3 3 4 3 2 3 4 4 4 3 4 4 2 4 4 4 6 4 5 6 7 7 6 6 6 7 6 6 6 6 6 6 6 5 6 5 6 6 6 6 7 8 8 6 11 14 15 16 18 21 22 23 24 23 23 23 23 23 23
1 2 3 2 1 3 1 3 2 2 1 1 2 2 2 1 2 1 1 2 2 2 2 2 2 3 4 4 3 2 3 3 4 4 4 4 4 4 4 4 4 4 6 5 6 6 6 6 6 6 6 6 6 7 6 6 7 7 7 6 6 6 6 6 7 7 8 8 9 7 11 13 15 16 18 20 22 24 23 22 22 23 23 23 23
2 2 1 2 2 3 1 2 2 2 0 2 1 1 1 1 1 2 2 2 2 2 2 2 3 3 3 4 4 3 2 3 3 3 4 4 4 4 4 4 4 5 5 6 6 6 6 6 6 7 6 7 7 7 7 7 6 7 7 7 6 7 7 7 7 7 8 9 9 11 7 11 14 16 17 19 21 22 23 23 23 23 23 23 24
1 2 1 1 3 2 2 3 2 1 2 1 1 1 1 1 2 3 1 3 2 2 2 3 1 3 3 3 3 4 3 3 3 4 4 5 5 5 4 4 5 5 5 5 6 6 6 6 6 8 7 7 8 7 7 8 7 7 7 7 7 7 7 7 8 8 8 9 9 9 6 10 14 15 18 20 21 22 23 24 23 24 24 24 25
1 1 1 1 3 2 2 2 1 1 1 2 1 1 1 1 1 1 2 2 2 2 2 1 2 3 3 4 5 4 4 4 5 4 4 5 4 5 5 5 5 5 5 5 6 6 6 6 7 7 7 8 7 6 7 8 7 7 6 7 7 7 7 7 8 8 8 9 9 10 11 9 13 17 18 20 21 21 22 24 23 23 24 25 25
2 2 1 1 2 3 3 2 2 2 2 2 1 1 1 1 1 2 2 1 3 2 1 2 2 3 4 5 5 4 4 5 4 4 5 4 4 5 5 5 5 5 6 5 5 6 6 6 7 7 8 8 8 7 7 7 8 7 5 6 7 7 7 7 8 8 8 9 9 10 13 10 11 15 18 18 20 20 22 23 23 23 24 25 26
3 3 2 1 4 3 3 2 2 1 2 2 1 1 1 1 1 1 1 2 2 2 1 2 3 3 4 5 5 5 5 6 5 4 5 4 4 4 5 5 6 6 6 7 6 7 7 7 8 9 8 9 8 7 8 8 8 8 6 7 6 7 7 7 7 8 9 9 9 10 11 13 11 14 14 17 19 21 22 23 25 24 24 24 26
4 4 3 2 2 3 3 2 2 1 2 2 2 2 2 2 1 1 1 3 0 0 1 3 3 4 4 4 5 5 5 5 6 6 4 5 5 5 5 5 6 7 6 8 8 7 7 8 8 9 8 9 8 7 8 7 8 8 8 7 6 6 7 7 8 8 9 9 10 9 10 11 13 13 15 17 19 20 21 23 24 25 24 24 25
3 3 2 2 3 3 2 1 1 1 2 1 1 1 2 2 2 1 1 1 1 0 2 3 3 3 3 4 4 5 5 5 5 5 6 5 5 5 6 6 6 7 7 9 10 8 8 8 8 9 7 9 8 8 8 8 8 8 8 8 6 7 7 8 7 8 8 9 9 10 10 10 11 13 15 17 18 19 20 23 24 24 25 24 24
3 3 3 3 3 2 1 2 1 2 1 1 1 2 2 2 1 1 2 1 1 1 2 1 2 2 3 5 5 6 5 5 6 6 6 5 6 5 7 7 7 8 8 8 8 8 8 9 9 9 8 8 9 9 9 9 9 9 8 8 7 7 7 8 7 7 8 8 8 9 9 9 10 11 12 16 17 19 20 22 24 25 25 24 24
2 2 3 3 3 2 3 2 3 2 2 2 2 2 3 2 1 1 2 2 1 1 1 1 2 2 2 4 5 5 6 6 5 5 5 5 6 6 6 7 8 8 8 8 9 9 9 10 9 9 10 9 9 9 10 10 11 10 9 7 8 7 7 8 7 8 8 7 8 9 9 9 9 9 11 11 13 17 19 21 24 24 23 24 22
4 3 3 2 3 4 4 3 3 2 2 1 1 2 3 1 0 1 1 1 1 0 1 2 2 2 2 3 4 5 5 6 6 6 5 5 5 6 6 7 8 8 8 8 8 8 9 10 11 11 10 11 10 10 9 11 11 11 9 8 7 8 7 8 8 8 8 8 8 8 9 9 10 10 12 11 11 14 19 21 22 23 23 23 24
4 4 3 4 4 5 4 4 4 2 1 2 2 2 2 2 2 1 2 0 1 1 1 1 2 2 3 3 4 4 5 5 6 6 5 6 5 6 6 8 8 8 8 8 8 8 9 10 10 10 11 11 11 11 10 11 11 10 10 10 8 7 7 7 7 7 8 9 10 9 9 10 11 11 11 11 11 12 16 20 22 22 22 23 24
4 4 3 4 4 4 4 3 2 3 2 1 3 3 3 3 3 2 1 2 1 1 1 1 2 2 3 3 3 4 4 5 6 6 6 6 6 6 7 7 8 8 8 9 8 8 9 10 11 10 10 11 10 11 11 12 12 10 11 11 9 7 7 7 6 7 7 9 9 10 9 10 10 11 11 12 12 12 13 17 21 22 21 23 25
4 5 3 4 4 4 3 3 3 2 3 2 2 4 2 3 1 2 2 2 1 0 1 1 2 2 3 3 2 3 4 5 5 6 6 6 6 6 7 8 7 7 8 8 9 10 9 9 11 11 10 10 10 10 11 12 13 11 12 12 10 9 6 6 6 7 8 9 9 9 9 10 10 11 12 11 11 11 13 13 15 15 16 23 24
5 4 4 4 4 3 3 2 3 2 3 3 3 4 3 4 3 2 2 1 2 0 0 1 1 2 2 3 3 2 4 4 5 6 6 6 6 6 7 8 8 7 8 9 8 9 10 11 11 12 12 10 9 9 11 11 12 11 13 11 10 8 7 6 7 8 8 9 9 9 9 10 11 11 12 11 11 12 12 13 13 14 15 18 23
6 5 5 5 4 4 3 3 3 3 3 3 3 2 3 3 2 2 2 1 2 1 1 1 2 2 3 4 4 3 4 4 5 6 6 6 6 6 7 7 7 8 8 8 9 10 10 10 10 9 11 12 10 10 11 11 11 10 11 10 9 7 5 4 6 8 8 8 8 9 9 9 10 11 11 11 12 12 11 12 13 14 14 13 16
6 6 6 5 5 4 4 3 3 3 3 3 2 2 3 3 2 2 2 1 2 2 1 1 1 1 2 3 3 3 4 3 4 5 5 6 6 6 7 7 7 7 7 8 10 10 9 9 10 10 10 10 9 11 11 12 11 12 12 11 6 7 3 3 7 11 9 7 8 9 9 10 12 11 11 11 10 10 11 11 13 13 13 13 14
6 6 6 6 6 5 5 4 3 2 2 2 4 4 3 2 3 2 2 1 0 3 3 2 1 3 1 3 2 3 3 4 3 4 4 5 6 7 7 7 7 7 7 8 8 9 9 10 11 10 10 10 9 9 11 12 12 13 11 10 8 9 4 3 10 11 8 7 8 9 10 11 12 11 10 10 10 10 11 11 13 14 13 14 14
6 6 6 6 5 5 4 4 3 3 2 2 3 2 2 1 2 3 2 4 3 1 2 2 2 2 2 1 2 2 3 4 5 5 5 6 6 6 7 7 7 7 7 8 8 9 9 9 10 10 10 9 9 10 11 11 10 12 12 12 11 8 9 8 14 12 7 11 9 10 10 10 12 11 9 10 11 11 10 11 13 13 14 13 12
6 6 6 5 3 5 4 4 3 2 2 2 2 2 3 4 3 3 3 3 4 3 2 3 1 1 3 1 2 3 4 4 5 5 6 6 6 6 7 7 6 7 7 7 8 9 10 10 10 9 10 9 10 8 9 10 12 10 10 12 10 8 10 13 15 7 9 11 11 11 10 12 12 11 9 9 10 10 10 11 12 14 14 13 12
7 6 5 5 4 4 5 4 2 1 2 3 2 2 2 3 3 3 3 3 3 2 2 2 2 2 3 3 4 3 4 4 5 5 5 6 6 7 7 7 6 6 6 7 7 8 9 10 9 9 9 9 8 9 9 9 10 10 10 8 7 9 12 14 14 12 12 6 10 11 10 12 12 11 9 9 10 9 9 10 11 13 13 12 11
7 6 6 5 5 4 4 4 2 2 2 2 2 2 2 2 3 4 3 3 3 2 1 2 3 3 1 3 4 3 4 4 4 5 5 5 6 6 6 6 6 6 6 7 7 7 8 8 9 9 8 8 8 8 9 9 9 8 9 8 8 7 9 10 11 13 14 13 11 11 11 12 13 10 10 9 10 9 10 10 11 12 13 13 13
7 7 6 6 6 5 5 4 3 2 2 2 3 2 2 2 2 3 4 4 3 3 2 1 2 3 3 4 4 3 2 3 4 5 6 5 5 6 6 5 5 6 6 6 6 7 7 8 8 8 7 7 7 8 9 9 10 9 10 9 9 8 9 9 9 9 10 12 14 12 11 13 12 8 10 10 10 10 11 10 11 11 12 13 13
8 8 7 6 6 6 5 5 4 3 3 2 2 2 2 2 2 2 3 3 2 3 2 2 3 2 4 3 4 4 3 3 4 4 4 5 4 5 6 6 6 7 6 6 6 7 8 8 8 7 7 7 6 7 7 8 9 10 10 9 9 9 9 8 8 9 8 10 11 13 14 13 12 9 9 10 10 9 10 10 10 11 12 13 13
7 8 7 7 7 6 6 6 5 4 3 3 2 2 2 2 2 2 3 3 2 2 3 2 2 2 3 2 2 2 3 3 3 4 4 4 4 5 5 6 6 6 6 6 6 7 7 8 7 7 7 7 6 7 7 7 8 9 9 9 9 10 10 9 9 10 9 9 11 13 13 14 14 12 10 9 9 8 8 10 10 10 11 12 13
7 8 7 7 7 7 7 7 6 4 4 3 3 3 3 3 3 2 2 3 3 3 3 3 2 2 2 1 1 2 3 3 3 2 3 4 4 5 5 6 5 5 6 6 6 6 6 6 6 6 6 6 6 6 7 8 8 9 9 8 9 9 9 10 10 10 10 10 11 12 14 13 14 13 12 9 6 7 8 9 10 10 11 12 12
Wind_Direction
70 85 69 69 79 83 82 79 66 61 64 71 72 67 61 56 53 48 42 43 41 40 36 29 21 23 37 33 36 70 80 59 27 24 12 10 12 9 8 4 355 354 2 1 1 13 20 16 7 2 10 13 15 14 13 6 1 353 349 348 348 346 343 340 338 338 333 329 322 319 317 310 305 310 308 314 319 319 318 316 313 309 298 277 286
120 83 94 91 83 76 78 74 76 70 71 78 69 64 60 56 54 52 51 51 46 43 40 29 29 23 19 34 27 38 42 38 44 40 35 33 27 21 17 17 13 4 6 358 22 22 22 19 8 1 358 351 358 0 14 2 353 346 339 338 338 333 330 329 329 329 325 320 316 307 305 302 294 289 301 309 319 320 317 315 313 308 302 310 311
90 84 83 85 81 77 81 79 76 82 88 88 78 69 65 61 61 60 63 56 57 49 45 38 31 29 23 29 39 45 49 50 49 40 45 45 48 26 16 10 22 31 22 28 42 11 33 11 10 358 0 343 341 337 342 345 346 331 331 333 332 331 328 330 325 328 325 322 324 324 314 286 272 288 299 309 319 320 317 314 310 305 299 310 302
86 84 84 86 78 75 76 84 84 87 89 82 78 75 74 73 70 70 63 66 61 64 56 57 52 48 44 43 49 57 55 57 43 39 37 30 37 41 22 9 30 19 28 21 298 338 349 356 341 349 345 342 340 341 342 344 334 326 327 324 322 322 325 321 325 322 328 330 326 318 297 297 297 321 312 314 320 323 319 313 308 302 299 300 301
80 77 81 66 78 86 87 90 106 100 81 80 82 84 83 81 79 72 65 61 54 55 77 60 62 72 81 86 86 86 68 39 31 45 35 25 23 28 33 21 11 15 1 2 357 356 335 333 329 337 341 342 344 342 345 347 342 337 334 329 331 328 315 325 329 334 336 334 320 293 299 313 311 313 323 328 321 322 322 317 308 301 303 308 302
77 69 65 90 85 90 101 112 100 77 81 85 90 90 87 80 78 74 70 57 51 34 43 81 60 48 52 48 63 57 52 44 33 24 19 25 22 18 10 10 13 14 338 5 1 358 355 344 339 333 334 346 350 341 359 351 348 341 338 340 339 331 325 342 340 339 341 323 291 286 316 311 314 315 335 324 322 323 321 316 308 301 306 316 311
76 80 92 98 95 102 116 99 85 92 97 97 97 96 92 87 76 65 72 68 55 41 46 31 64 51 39 58 55 32 18 7 19 24 1 23 351 2 10 3 351 347 347 1 360 354 359 8 8 347 350 352 352 349 348 355 344 341 342 338 343 343 350 344 342 341 327 306 310 326 317 321 323 323 321 319 329 325 319 314 311 304 304 312 320
94 95 102 89 89 123 104 92 101 105 99 100 98 101 95 79 61 56 47 44 44 52 28 18 48 73 73 24 11 3 355 313 299 314 310 331 349 334 334 337 350 336 337 343 357 351 358 8 357 351 349 343 346 345 339 347 341 347 346 340 344 356 351 332 325 328 304 295 328 324 329 330 334 317 333 357 339 322 316 314 311 303 298 311 322
102 103 81 88 107 100 106 109 100 96 99 94 96 78 70 65 53 56 41 28 23 57 63 21 111 62 48 65 360 334 352 351 309 267 251 281 314 327 332 334 344 0 353 3 4 1 8 3 356 354 346 342 336 339 334 345 343 340 346 348 356 342 325 331 342 319 294 336 322 337 336 344 322 318 26 357 331 323 323 319 309 306 310 312 313
128 123 126 117 90 102 103 103 99 96 100 101 89 72 44 51 29 34 41 11 15 40 28 26 66 109 36 35 14 343 2 3 26 23 11 5 347 20 34 29 34 39 31 14 12 4 1 356 352 349 344 339 333 338 345 339 326 342 345 346 336 328 337 339 339 294 316 318 325 333 336 343 312 309 14 344 328 323 323 322 318 314 310 308 305
121 111 104 97 107 113 110 107 105 97 88 86 84 88 74 52 40 32 19 29 7 21 46 34 20 23 25 23 331 353 11 34 33 42 38 46 55 56 49 50 40 27 19 11 2 3 355 354 353 349 345 343 351 347 344 327 334 3 344 332 335 336 343 343 314 313 332 322 325 337 315 314 306 318 5 335 325 320 319 316 316 316 312 309 306
123 125 124 114 115 113 118 112 105 96 88 79 83 70 60 43 25 35 33 31 9 8 30 34 27 25 33 18 30 25 23 41 39 41 39 41 45 49 41 33 22 15 5 357 1 354 352 353 352 344 346 344 344 345 343 329 340 340 329 337 343 336 330 331 299 320 317 322 323 326 316 320 322 347 352 331 321 319 318 319 317 315 313 310 308
133 121 122 122 108 114 119 111 89 82 78 80 77 54 41 23 25 59 51 34 22 6 25 40 41 31 31 26 29 23 27 41 37 42 33 28 26 21 16 11 11 6 3 357 354 351 349 352 352 343 349 338 355 338 337 341 335 339 341 351 335 328 326 315 307 317 325 327 326 320 327 320 311 10 340 326 321 316 316 316 315 314 313 311 308
139 132 133 114 96 118 124 119 95 87 84 65 22 15 13 10 27 73 42 42 18 349 46 45 38 31 28 36 34 20 41 33 31 26 21 21 22 18 12 8 7 360 360 354 354 349 350 353 347 350 344 346 353 342 339 335 332 335 336 339 332 331 326 300 305 312 321 322 321 322 317 321 326 360 334 323 318 316 315 315 314 313 311 309 308
121 114 120 128 128 98 116 118 111 48 28 2 360 348 357 41 62 53 45 43 21 355 24 53 43 42 36 41 44 40 38 28 20 15 13 19 13 16 16 12 9 7 5 2 355 360 359 344 355 346 340 352 352 344 339 337 331 331 332 329 326 333 340 320 320 317 319 318 318 329 318 313 2 349 332 322 317 316 315 314 312 312 312 311 309
114 122 141 134 148 149 161 124 92 59 339 343 1 357 13 97 84 51 49 45 30 28 30 44 47 41 52 66 56 46 36 29 22 19 25 27 19 20 24 16 12 11 14 5 0 9 356 353 344 344 342 347 349 342 340 339 340 335 332 331 324 330 337 329 308 318 315 314 325 318 314 314 13 342 323 320 320 317 315 314 314 313 313 309 306
120 132 109 116 171 167 122 172 79 184 156 28 30 358 160 113 67 57 56 52 47 39 43 54 53 66 74 68 59 49 41 34 32 29 34 30 31 24 26 17 21 11 15 11 6 355 355 346 346 347 343 340 336 339 343 342 344 343 341 331 332 332 330 321 304 303 312 324 324 306 329 323 354 327 322 322 321 320 317 316 314 314 312 308 306
133 131 105 112 111 13 97 142 150 158 98 151 111 60 77 80 72 65 58 56 51 45 53 65 80 84 77 69 56 49 40 37 38 34 30 32 26 33 21 24 23 13 14 13 8 359 355 351 350 345 338 334 335 334 341 347 341 343 340 337 329 325 310 300 281 317 328 332 301 349 301 8 337 324 324 323 322 321 319 317 316 313 312 310 305
127 98 108 72 8 127 36 132 144 124 129 67 55 99 60 65 82 82 66 61 59 64 68 75 96 84 75 63 57 48 47 42 41 45 29 38 19 35 31 21 18 20 16 17 17 12 7 2 352 345 332 328 321 322 328 337 345 339 338 332 323 309 291 269 320 330 316 294 346 317 329 358 327 324 326 325 324 322 320 316 314 312 310 308 304
125 124 110 52 128 87 295 108 93 130 100 66 60 51 91 83 86 85 80 68 60 71 82 99 94 83 68 61 44 36 50 59 19 62 34 32 45 14 26 20 25 27 27 29 24 18 14 6 354 336 338 315 312 285 257 315 342 344 332 324 313 288 277 328 320 318 309 323 316 301 13 336 326 326 324 324 321 319 316 314 311 311 309 307 304
137 129 58 86 53 99 160 147 119 116 95 76 69 74 101 146 119 95 95 67 63 71 104 128 127 108 89 68 42 27 38 29 28 21 41 53 36 28 26 32 27 38 36 38 35 26 18 8 355 341 320 319 289 273 237 205 172 316 320 308 287 281 345 320 326 303 315 309 315 330 3 329 323 323 321 321 322 319 318 316 313 311 308 307 306
167 142 117 79 143 129 115 83 129 119 112 85 80 88 124 94 77 75 50 87 82 137 143 113 127 128 168 113 23 23 18 47 24 5 44 25 72 33 44 47 39 44 43 46 33 27 7 360 343 324 298 288 278 277 226 179 173 192 274 269 278 343 334 325 312 305 314 308 320 358 343 325 320 318 319 322 321 320 319 318 316 311 308 308 308
151 167 111 67 39 123 134 130 89 116 98 104 74 96 106 44 85 95 110 73 82 67 103 171 71 68 20 8 28 26 26 44 40 20 17 98 72 48 52 60 52 30 351 277 18 9 295 273 260 295 278 257 263 339 319 339 322 184 220 249 322 328 323 310 298 311 308 331 301 1 328 320 318 316 319 324 324 322 321 320 316 313 311 309 306
204 51 66 89 61 51 67 121 144 135 165 60 56 113 90 49 57 97 60 67 61 58 74 30 47 1 10 348 43 8 18 47 132 193 219 4 125 153 161 191 176 133 334 275 236 140 292 218 201 254 267 337 346 320 339 331 324 332 325 305 305 323 307 310 307 312 311 322 309 353 320 317 316 316 321 325 325 324 322 321 319 315 311 309 307
94 247 150 88 47 85 152 122 142 144 131 136 136 92 102 220 88 83 32 30 34 51 78 92 44 357 335 5 27 18 4 30 26 23 17 31 15 12 18 17 12 8 351 351 346 357 342 354 347 333 349 329 337 324 326 324 322 320 321 315 303 307 300 306 314 310 311 320 321 337 318 314 315 318 322 325 326 326 324 323 319 317 315 312 309
69 240 42 79 150 114 222 117 145 130 140 11 22 98 225 133 94 52 26 32 50 42 49 66 65 23 359 12 7 21 356 47 34 20 24 26 12 11 7 15 359 3 1 352 356 354 347 351 344 342 341 325 326 332 315 316 316 321 317 320 307 300 302 304 312 308 312 321 318 340 311 309 316 319 320 325 327 327 325 322 320 318 316 314 312
201 65 22 38 31 83 132 198 141 144 152 25 196 187 83 124 135 34 335 50 40 33 65 63 53 28 16 14 349 6 27 25 32 25 26 18 16 9 9 6 4 6 6 352 357 356 351 345 347 338 335 330 327 323 320 319 312 305 311 311 318 307 299 303 307 312 315 316 322 316 299 312 315 316 319 327 329 329 326 325 323 319 318 316 316
316 66 128 13 96 156 128 205 153 190 169 165 223 190 143 110 88 169 143 31 340 66 79 51 53 59 23 22 2 2 13 27 17 15 24 17 11 17 2 12 7 11 3 360 358 354 350 346 340 336 334 333 326 323 328 314 314 309 303 306 310 309 306 303 303 308 312 314 321 325 348 310 308 313 324 328 330 330 329 327 324 321 319 318 316
126 152 79 161 147 150 183 207 151 174 156 227 176 265 138 168 137 92 71 338 49 59 42 44 43 59 39 29 25 13 11 25 10 11 19 17 14 14 5 12 8 11 354 4 355 348 348 343 336 338 335 333 326 324 325 315 314 309 306 312 315 306 301 302 306 308 310 319 319 326 326 320 313 320 322 326 329 331 332 329 325 323 320 317 316
167 153 208 139 141 159 183 166 195 162 168 233 228 174 195 179 182 52 56 214 86 80 229 68 39 36 52 28 34 19 18 9 22 3 18 18 22 10 15 11 9 8 355 360 354 348 341 340 336 338 337 332 329 328 318 320 313 308 310 315 306 307 306 302 311 308 316 315 321 318 329 327 316 317 323 326 330 330 331 331 328 324 321 318 318
165 186 204 165 137 187 166 173 188 184 226 242 241 183 241 224 134 167 87 39 95 188 116 50 52 54 53 33 32 36 18 26 13 12 20 13 26 17 21 9 7 8 358 353 356 350 340 346 346 338 340 332 327 328 330 319 321 312 324 305 306 307 306 307 307 309 311 319 320 322 325 322 324 323 322 329 329 330 333 334 330 326 323 321 320
184 191 195 139 165 192 169 166 195 219 258 241 213 218 225 155 184 129 57 67 253 317 61 75 51 57 38 35 36 30 24 41 16 4 19 17 19 9 16 11 8 360 0 350 350 348 342 345 344 336 341 328 328 328 329 324 322 322 316 311 310 307 302 317 307 315 315 318 319 326 323 328 324 331 327 335 332 329 332 332 331 329 325 323 323
180 181 162 177 180 187 191 140 142 143 216 236 255 233 199 173 165 116 84 37 138 193 65 55 58 74 50 28 35 35 24 22 28 19 1 23 13 12 4 11 1 359 352 354 345 350 348 344 345 336 344 329 329 336 333 329 326 325 317 313 314 303 317 308 311 317 319 318 321 323 325 327 326 327 337 337 329 329 332 335 332 330 329 325 322
178 165 167 193 186 168 191 158 158 182 115 174 216 191 170 144 147 103 84 232 67 96 65 67 77 55 63 33 25 24 23 31 9 18 7 11 6 13 1 11 354 0 348 357 347 352 351 348 347 339 346 333 332 338 337 337 335 324 324 324 308 308 313 309 321 318 317 317 321 319 328 326 325 331 331 329 328 331 336 336 334 333 330 326 323
206 171 173 190 181 182 167 199 161 178 177 148 197 142 172 158 166 101 63 331 76 32 37 5 95 46 24 54 27 30 24 17 24 5 8 359 8 6 2 12 357 352 354 360 348 352 355 349 349 344 346 337 335 338 341 339 336 329 327 324 303 316 309 307 320 317 320 319 313 330 324 322 333 328 329 327 327 332 344 340 334 334 331 328 330
204 179 185 182 191 186 183 205 179 178 148 154 143 170 159 212 136 41 80 341 330 270 127 26 10 49 35 55 32 27 26 21 17 9 359 357 12 1 9 9 355 354 1 353 352 356 355 351 346 345 345 341 334 341 343 342 335 326 327 318 314 306 306 307 320 315 319 312 326 325 322 327 328 332 324 327 331 331 340 337 334 333 333 332 335
188 185 198 184 194 182 193 214 201 200 176 159 202 185 195 192 251 88 360 285 334 314 67 345 53 50 1 35 30 24 14 24 14 13 360 354 9 2 8 6 358 357 1 352 356 358 354 351 345 345 345 337 344 341 339 343 331 328 329 322 321 311 295 307 308 314 315 321 325 328 322 322 328 330 329 333 332 333 338 339 337 335 335 335 336
178 189 196 211 191 185 190 202 201 218 220 216 209 212 187 237 196 224 156 329 327 336 10 335 48 7 11 30 12 13 8 14 13 8 4 358 356 5 360 360 358 354 2 353 355 357 360 347 347 349 346 339 344 344 344 346 333 333 332 326 319 307 295 295 314 308 314 324 329 323 321 322 328 331 332 335 336 337 340 339 338 337 337 338 336
180 182 194 196 190 172 189 176 214 204 220 216 232 234 226 221 264 251 202 227 221 109 303 313 35 343 25 14 349 7 356 360 11 3 359 0 355 1 1 351 352 350 3 353 351 350 3 345 347 346 345 343 341 347 344 344 330 334 335 328 319 311 304 295 302 298 316 329 322 321 327 326 326 330 333 336 339 340 340 343 340 340 339 339 337
173 172 178 178 183 169 194 193 210 224 225 231 229 225 213 216 217 203 240 233 280 344 109 317 303 3 18 355 5 3 357 358 5 8 3 3 352 356 3 349 354 351 359 351 348 354 349 347 351 341 343 346 341 350 349 343 330 337 332 321 319 311 284 301 307 313 318 317 322 328 331 331 328 332 337 338 339 345 343 344 343 342 341 338 338
174 172 175 177 183 189 172 198 187 204 238 235 223 243 220 209 234 271 281 170 271 330 160 264 295 55 352 354 359 4 357 5 353 8 1 358 2 357 356 355 349 354 353 345 352 351 350 348 351 340 345 343 344 350 353 346 331 339 329 327 315 323 301 284 321 332 325 318 326 326 328 331 334 335 339 339 341 348 349 347 346 345 343 341 339
175 181 185 181 184 188 195 188 193 203 224 243 266 237 254 261 254 232 258 243 199 239 9 163 235 36 332 3 345 349 1 356 358 8 345 3 1 355 352 351 351 356 345 350 349 352 353 349 348 345 350 342 343 351 350 349 345 346 338 336 326 330 328 310 356 335 324 318 324 325 333 337 338 336 337 342 348 349 352 352 350 349 348 343 341
175 187 185 187 186 191 199 202 202 226 206 221 235 228 228 250 264 313 271 285 269 329 330 9 344 314 356 327 339 342 348 339 350 359 333 12 353 351 351 351 349 348 346 351 349 351 357 350 349 349 347 344 345 351 351 1 346 345 338 330 348 328 358 344 341 330 321 334 326 334 340 340 337 337 336 340 346 345 351 354 353 350 350 347 345
179 180 183 184 187 199 194 199 205 225 237 207 235 235 252 250 242 269 282 289 334 1 266 252 260 258 285 13 313 337 338 327 356 343 347 358 351 346 343 347 344 347 346 347 348 353 349 356 353 348 349 344 349 350 352 358 354 350 351 351 334 326 337 347 339 327 339 336 338 338 339 340 339 339 337 345 346 346 347 352 353 352 350 349 347
185 179 175 178 182 188 189 196 210 227 226 175 214 237 199 214 218 215 242 237 240 250 272 274 248 262 255 264 354 328 319 332 338 333 344 346 348 342 343 338 339 344 350 340 347 352 349 352 358 345 351 351 345 343 349 358 355 8 354 346 349 342 346 334 331 323 353 331 342 333 340 340 338 338 338 341 344 345 345 346 352 354 353 351 348
186 178 170 174 170 172 179 185 196 211 206 183 205 234 215 230 208 218 217 226 252 244 274 302 290 279 328 1 291 332 324 328 326 333 337 341 339 337 342 334 342 338 347 339 344 349 345 347 358 346 347 358 347 345 350 353 353 359 6 358 350 332 329 333 331 330 326 334 331 329 340 341 340 336 337 338 346 345 346 346 349 354 352 352 353
180 167 168 166 170 166 177 182 191 182 187 191 201 231 235 238 245 256 265 280 297 297 331 300 279 290 291 299 322 314 310 317 325 322 334 342 336 332 340 331 340 331 345 334 344 341 342 349 353 345 347 346 352 345 349 351 350 357 357 349 343 329 326 330 334 326 329 332 330 331 334 341 340 335 340 346 350 345 347 347 348 351 353 357 354
172 164 164 169 171 177 177 179 183 183 167 181 199 239 273 248 257 257 264 267 272 301 319 281 269 272 277 290 311 302 301 335 329 325 343 327 338 329 329 338 335 338 337 332 338 340 339 344 349 343 345 348 350 351 346 353 350 348 351 343 340 336 339 330 329 324 315 316 319 322 328 335 334 345 344 344 350 347 348 345 350 352 356 357 354
170 169 170 169 172 177 181 179 182 185 154 181 217 198 244 287 275 266 256 261 282 281 278 280 291 286 285 297 301 319 320 338 330 332 325 329 319 333 330 332 345 335 340 330 339 339 336 339 342 345 351 347 353 346 348 350 347 350 343 347 341 343 338 342 332 332 323 317 312 320 326 330 330 349 347 346 346 344 352 349 348 357 357 358 357
172 168 166 166 172 174 183 185 185 191 163 176 197 204 219 239 246 257 280 279 265 263 283 294 272 265 267 273 305 300 336 313 337 329 325 315 341 331 330 344 334 350 332 335 327 328 335 336 340 344 343 344 349 351 350 349 346 348 347 343 343 343 343 343 344 341 333 319 315 322 331 336 337 340 333 343 340 341 354 355 349 0 1 1 360
165 168 167 171 175 177 181 189 188 188 168 187 193 197 205 216 241 259 268 274 271 272 277 272 256 242 276 294 287 335 314 327 318 319 315 329 352 332 342 336 346 344 335 331 330 329 330 332 336 338 340 346 350 345 344 349 351 346 353 345 344 346 342 340 338 338 329 321 323 328 331 337 331 323 339 331 340 345 356 2 355 2 3 5 5